Content
SEND FEEDBACK

Daily
Averages
Monthly
Summary
United States of America

MEXIA, TEXAS


Home > North America > United States > Texas
Elevation: 534 feet     Latitude: 31 41N     Longitude: 096 29W

WEATHER
 
SELECT A DAY
Number of Records: 177,998;   Date Range: 5/20/97 - 10/29/14
 
SHARE

PRINT THIS DATA

[ ← Previous Day ]
WEATHER ALMANAC - FEBRUARY 13, 2013
[ Next Day → ]
[ °C ]   °F
Weather ElementAverageHighLow
Temperature44.6 °F54 °F (3:53 pm)37.9 °F (11:53 pm)
Dewpoint36.1 °F37.9 °F (4:53 pm)34 °F (6:53 am)
Humidity72.8 %86 % (10:53 pm)53 % (3:53 pm)
Barometer30.11 in30.19 in (10:53 am)30.06 in (1:53 am)
Wind Speed8 mph21.9 mph (2:53 am)
Wind Gust27.6 mph (2:53 am)
Weather ElementAverage
Visibility10 mi
Wind DirectionSW (230 °)

Weather ElementTotal
Precipitation---
Heating Degree Days19.1 (Base 65)
Averaged from 24 records on February 13, 2013
WEATHER CONDITIONS BREAKOUT
WIND DIRECTION BREAKOUT
WEATHER BY HOUR - FEBRUARY 13, 2013
[ °C ]   °F
Local TimeTemperatureDewpointHumidityBarometerVisibilityWind DirectionWind SpeedGust SpeedPrecipitationEventsConditions
1:53 AM43.0 °F37.0 °F80 %30.06 in10.0 miNW (310°)15.0 mphMostly Cloudy
2:53 AM42.1 °F35.1 °F76 %30.07 in10.0 miNW (320°)21.9 mph27.6 mphOvercast
3:18 AM41.0 °F35.6 °F81 %30.06 in10.0 miNNW (330°)16.1 mphPartly Cloudy
3:53 AM42.1 °F36.0 °F79 %30.08 in10.0 miNNW (330°)12.7 mph23.0 mphMostly Cloudy
4:53 AM42.1 °F36.0 °F79 %30.10 in10.0 miNNW (330°)9.2 mphOvercast
6:53 AM41.0 °F34.0 °F76 %30.13 in10.0 miNNW (330°)10.4 mphOvercast
7:53 AM41.0 °F35.1 °F79 %30.15 in10.0 miNNW (340°)9.2 mphOvercast
8:53 AM42.1 °F35.1 °F76 %30.17 in10.0 miNNW (330°)8.1 mphOvercast
9:53 AM43.0 °F35.1 °F74 %30.18 in10.0 miNW (310°)6.9 mphOvercast
10:53 AM43.0 °F35.1 °F74 %30.19 in10.0 miWNW (300°)8.1 mphOvercast
11:53 AM44.1 °F35.1 °F71 %30.18 in10.0 miNNW (340°)8.1 mphOvercast
12:53 PM48.0 °F37.0 °F66 %30.15 in10.0 miNorth (10°)8.1 mphMostly Cloudy
1:05 PM48.2 °F37.4 °F66 %30.14 in10.0 miNNW (330°)5.8 mphPartly Cloudy
1:53 PM51.1 °F37.0 °F59 %30.11 in10.0 miNorth (360°)5.8 mphClear
2:53 PM52.0 °F37.0 °F57 %30.09 in10.0 miCalmClear
3:53 PM54.0 °F37.0 °F53 %30.08 in10.0 miNNE (20°)3.5 mphClear
4:53 PM52.0 °F37.9 °F59 %30.08 in10.0 miSE (130°)3.5 mphClear
5:53 PM50.0 °F37.9 °F63 %30.08 in10.0 miSSE (150°)3.5 mphClear
6:53 PM46.9 °F37.0 °F68 %30.08 in10.0 miSE (130°)3.5 mphClear
7:53 PM45.0 °F37.0 °F74 %30.09 in10.0 miSSE (150°)4.6 mphClear
8:53 PM41.0 °F36.0 °F82 %30.09 in10.0 miSSE (160°)8.1 mphClear
9:53 PM41.0 °F36.0 °F82 %30.09 in10.0 miSouth (170°)6.9 mphClear
10:53 PM39.0 °F35.1 °F86 %30.09 in10.0 miSouth (170°)6.9 mphClear
11:53 PM37.9 °F34.0 °F86 %30.09 in10.0 miSouth (170°)5.8 mphClear
Hourly data recorded from KCRS, located miles away from Mexia, Texas







STORIES FROM OUR PARTNERS